Total_Precipitation_Accumulation
0.01 0.04 0.16 0.28 0.46 0.75 0.88 0.60 0.51 0.35 0.26 0.27 0.21 0.19 0.25 0.40 0.45 0.51 0.24 0.09 0.02 0.01 0.03 0.04 0.06 0.05 0.05 0.05 0.08 0.10 0.10 0.10 0.12 0.14 0.16 0.16 0.18 0.16 0.12 0.09 0.08 0.09 0.07 0.06 0.06 0.07 0.08 0.08 0.08
0.01 0.04 0.16 0.27 0.57 1.04 0.88 0.45 0.31 0.24 0.21 0.25 0.22 0.24 0.40 0.43 0.33 0.32 0.17 0.07 0.03 0.02 0.02 0.03 0.05 0.05 0.04 0.05 0.08 0.10 0.11 0.10 0.11 0.16 0.17 0.16 0.18 0.16 0.15 0.14 0.13 0.12 0.08 0.06 0.05 0.05 0.06 0.06 0.05
0.01 0.04 0.14 0.28 0.56 0.81 0.64 0.37 0.23 0.16 0.22 0.35 0.34 0.30 0.48 0.47 0.36 0.32 0.17 0.05 0.03 0.03 0.06 0.05 0.05 0.05 0.05 0.06 0.07 0.10 0.12 0.11 0.12 0.16 0.16 0.15 0.16 0.17 0.17 0.18 0.19 0.16 0.11 0.08 0.07 0.06 0.05 0.05 0.04
0.01 0.05 0.12 0.23 0.36 0.39 0.34 0.24 0.18 0.17 0.22 0.35 0.42 0.38 0.46 0.35 0.22 0.20 0.13 0.06 0.03 0.04 0.08 0.08 0.05 0.05 0.04 0.05 0.06 0.08 0.10 0.12 0.13 0.15 0.16 0.16 0.19 0.19 0.15 0.18 0.18 0.16 0.12 0.09 0.10 0.09 0.06 0.05 0.04
0.02 0.05 0.12 0.22 0.29 0.30 0.25 0.21 0.20 0.28 0.32 0.39 0.40 0.53 0.53 0.38 0.25 0.16 0.10 0.06 0.03 0.04 0.05 0.06 0.06 0.06 0.07 0.06 0.06 0.07 0.09 0.10 0.11 0.14 0.17 0.18 0.19 0.21 0.21 0.19 0.17 0.14 0.11 0.10 0.15 0.17 0.14 0.09 0.08
0.02 0.03 0.07 0.14 0.20 0.22 0.21 0.17 0.15 0.22 0.33 0.39 0.40 0.49 0.58 0.46 0.32 0.21 0.13 0.09 0.05 0.05 0.07 0.09 0.09 0.09 0.09 0.08 0.07 0.08 0.09 0.11 0.11 0.12 0.14 0.14 0.14 0.17 0.19 0.18 0.18 0.15 0.15 0.16 0.17 0.17 0.17 0.18 0.15
0.01 0.02 0.03 0.06 0.09 0.11 0.14 0.15 0.16 0.20 0.31 0.33 0.35 0.58 0.73 0.61 0.39 0.27 0.23 0.20 0.13 0.10 0.10 0.13 0.15 0.15 0.13 0.13 0.13 0.13 0.13 0.14 0.13 0.14 0.15 0.15 0.17 0.19 0.19 0.19 0.18 0.18 0.20 0.20 0.18 0.15 0.15 0.18 0.17
0.01 0.02 0.01 0.02 0.03 0.05 0.06 0.10 0.14 0.21 0.22 0.29 0.35 0.56 0.81 0.65 0.39 0.38 0.47 0.42 0.29 0.20 0.17 0.19 0.24 0.30 0.25 0.20 0.21 0.19 0.19 0.19 0.19 0.20 0.21 0.22 0.25 0.25 0.28 0.28 0.27 0.26 0.28 0.27 0.25 0.20 0.20 0.22 0.20
0.00 0.01 0.01 0.01 0.01 0.03 0.04 0.09 0.12 0.12 0.16 0.22 0.33 0.45 0.61 0.49 0.44 0.57 0.78 0.67 0.51 0.34 0.23 0.20 0.22 0.32 0.34 0.29 0.25 0.27 0.28 0.29 0.31 0.37 0.37 0.38 0.45 0.52 0.56 0.50 0.54 0.55 0.58 0.56 0.52 0.45 0.41 0.35 0.30
0.00 0.00 0.00 0.00 0.00 0.01 0.03 0.06 0.11 0.14 0.24 0.44 0.57 0.60 0.54 0.60 0.70 0.92 1.01 0.89 0.75 0.57 0.37 0.27 0.27 0.29 0.33 0.36 0.46 0.50 0.52 0.57 0.55 0.68 0.70 0.73 0.82 0.79 0.65 0.72 0.92 1.11 1.19 1.12 1.10 1.05 0.86 0.72 0.69
0.00 0.00 0.00 0.00 0.00 0.01 0.02 0.05 0.11 0.18 0.41 0.74 0.85 0.86 0.78 0.93 1.14 1.29 1.35 1.29 1.13 0.99 0.68 0.45 0.41 0.46 0.49 0.58 0.60 0.68 0.79 0.94 0.88 0.88 1.01 1.14 1.12 0.92 0.81 0.92 1.09 1.25 1.38 1.50 1.82 1.83 1.43 1.42 1.41
0.00 0.00 0.00 0.00 0.00 0.01 0.02 0.05 0.14 0.32 0.64 0.73 0.83 0.91 0.91 1.10 1.27 1.39 1.79 1.83 1.38 1.05 0.93 0.85 0.71 0.73 0.81 0.79 0.86 0.90 0.90 0.97 0.99 1.12 1.23 1.34 1.36 1.25 1.20 1.30 1.35 1.51 1.61 1.95 2.04 2.12 1.95 1.77 1.57
0.00 0.00 0.00 0.00 0.00 0.01 0.03 0.07 0.15 0.31 0.47 0.55 0.67 0.72 0.77 1.10 1.32 1.59 2.08 1.93 1.56 1.36 1.20 1.14 1.09 1.14 1.13 1.10 1.15 1.09 1.08 1.10 1.19 1.32 1.44 1.51 1.56 1.48 1.50 1.58 1.65 1.51 1.64 1.93 2.15 2.10 2.25 2.24 2.04
0.00 0.00 0.00 0.01 0.01 0.02 0.03 0.09 0.19 0.37 0.47 0.63 0.65 0.81 0.99 1.27 1.45 1.75 1.96 2.09 1.86 1.68 1.51 1.41 1.30 1.36 1.42 1.42 1.49 1.46 1.29 1.31 1.34 1.52 1.57 1.66 1.68 1.71 1.79 1.82 1.77 1.59 1.61 1.86 2.13 2.07 2.34 2.26 2.20
0.01 0.01 0.04 0.03 0.03 0.04 0.06 0.20 0.39 0.47 0.61 0.73 0.84 0.97 1.13 1.33 1.73 1.86 2.00 2.30 2.16 2.01 1.89 1.69 1.58 1.75 1.94 1.98 1.95 1.83 1.66 1.54 1.56 1.65 1.68 1.75 1.75 1.86 1.87 1.81 1.78 1.76 1.74 1.94 2.03 2.10 2.27 2.09 1.96
0.01 0.03 0.09 0.09 0.06 0.06 0.12 0.47 0.55 0.45 0.70 0.86 0.92 1.08 1.40 1.62 1.92 2.23 2.37 2.23 2.13 2.15 2.16 1.86 1.80 2.15 2.45 2.40 2.32 2.17 1.97 1.81 1.67 1.73 1.71 1.78 1.82 1.94 2.04 1.82 1.75 1.99 2.01 2.11 2.30 2.28 2.38 2.41 2.28
0.01 0.05 0.10 0.13 0.09 0.09 0.21 0.65 0.56 0.41 0.57 0.76 0.98 1.13 1.52 1.91 2.18 2.21 2.20 2.24 2.28 2.27 2.21 2.13 2.24 2.40 2.54 2.56 2.60 2.39 2.16 1.99 1.79 1.70 1.64 1.69 1.84 2.05 2.32 2.09 2.08 2.19 2.20 2.21 1.98 2.41 2.67 2.60 2.44
0.01 0.04 0.09 0.13 0.11 0.14 0.25 0.48 0.52 0.46 0.60 0.81 1.12 1.27 1.39 1.69 2.10 2.16 2.16 2.39 2.39 2.40 2.39 2.30 2.43 2.63 2.92 3.13 3.14 2.78 2.39 2.12 1.94 1.83 1.81 1.88 2.08 2.26 2.49 2.27 2.22 2.26 2.33 2.25 2.30 2.61 2.61 2.38 2.37
0.01 0.04 0.10 0.13 0.12 0.18 0.28 0.48 0.63 0.61 0.77 1.15 1.36 1.31 1.27 1.48 1.90 2.21 2.39 2.45 2.64 2.63 2.67 2.66 2.83 3.19 3.54 3.47 3.17 2.95 2.64 2.40 2.21 2.05 1.95 1.96 1.98 2.15 2.41 2.24 2.39 2.33 2.20 2.16 2.30 2.53 2.53 2.28 2.51
0.02 0.06 0.13 0.15 0.13 0.21 0.35 0.57 0.73 0.81 1.05 1.21 1.13 1.11 1.26 1.51 1.90 2.20 2.37 2.41 2.56 2.76 3.03 3.09 3.18 3.52 3.75 3.63 3.45 3.22 3.00 2.65 2.53 2.41 2.25 2.01 1.90 2.02 2.12 2.30 2.17 2.16 2.15 2.15 2.30 2.45 2.26 1.99 2.46
0.03 0.06 0.12 0.12 0.18 0.30 0.39 0.76 0.92 1.04 1.17 1.16 1.11 1.27 1.32 1.37 1.68 1.85 1.85 1.96 2.05 2.15 2.31 2.54 2.88 3.28 3.40 3.48 3.40 3.30 3.20 2.76 2.60 2.46 2.29 2.07 1.93 1.90 2.00 2.11 2.12 2.04 2.02 2.01 2.19 2.25 2.19 2.05 2.22
0.06 0.05 0.05 0.08 0.16 0.41 0.47 0.98 1.18 1.35 1.42 1.24 1.20 1.19 1.19 1.38 1.64 1.57 1.43 1.56 1.64 1.56 1.76 2.06 2.39 2.70 2.89 3.02 3.06 3.10 2.98 2.78 2.70 2.52 2.18 1.94 1.81 1.81 1.87 1.90 1.89 1.89 1.84 1.83 1.79 1.90 2.20 2.25 2.07
0.04 0.04 0.06 0.09 0.16 0.37 0.43 0.77 1.21 1.53 1.62 1.27 1.16 1.10 1.17 1.34 1.35 1.31 1.33 1.42 1.47 1.50 1.70 1.90 2.06 2.34 2.55 2.63 2.63 2.63 2.53 2.43 2.37 2.21 1.97 1.80 1.68 1.61 1.52 1.56 1.72 1.78 1.70 1.64 1.66 1.78 1.94 1.97 1.95
0.04 0.07 0.12 0.17 0.33 0.66 0.57 0.68 1.17 1.46 1.28 1.11 1.06 0.91 0.99 1.18 1.25 1.28 1.31 1.34 1.40 1.61 1.86 2.01 2.15 2.33 2.41 2.25 2.10 2.08 2.09 2.10 2.01 1.87 1.71 1.53 1.43 1.37 1.30 1.38 1.52 1.57 1.57 1.56 1.53 1.58 1.68 1.76 1.80
0.08 0.16 0.52 0.86 1.18 1.07 0.68 0.78 1.36 1.21 0.86 0.76 0.84 0.83 0.84 0.91 1.06 1.13 1.24 1.39 1.48 1.51 1.51 1.72 1.99 2.21 2.18 1.98 1.80 1.73 1.73 1.77 1.75 1.64 1.54 1.46 1.34 1.25 1.23 1.26 1.28 1.31 1.35 1.40 1.44 1.46 1.53 1.66 1.73
0.13 0.23 0.64 0.85 0.91 0.90 0.72 1.11 1.51 1.11 0.76 0.60 0.68 0.69 0.61 0.57 0.54 0.61 0.71 0.76 0.77 0.77 0.75 0.83 0.97 1.14 1.22 1.18 1.17 1.17 1.20 1.27 1.33 1.42 1.36 1.35 1.30 1.18 1.13 1.08 1.06 1.12 1.15 1.18 1.32 1.41 1.51 1.62 1.68
0.24 0.28 0.27 0.45 0.61 0.90 0.90 1.09 1.08 0.83 0.67 0.60 0.66 0.61 0.48 0.46 0.41 0.45 0.49 0.44 0.47 0.47 0.50 0.60 0.69 0.76 0.80 0.78 0.76 0.77 0.82 0.92 1.00 1.06 1.08 1.11 1.12 1.06 1.04 1.05 1.07 1.05 1.07 1.12 1.22 1.30 1.35 1.49 1.58
0.20 0.27 0.41 0.63 0.81 0.88 0.92 1.21 1.31 1.14 0.94 0.75 0.72 0.66 0.49 0.39 0.35 0.35 0.41 0.39 0.46 0.54 0.63 0.70 0.69 0.65 0.61 0.59 0.60 0.56 0.62 0.68 0.74 0.77 0.79 0.80 0.81 0.85 0.86 0.88 0.91 0.92 0.93 0.96 1.06 1.15 1.24 1.34 1.40
0.22 0.29 0.43 0.58 0.63 0.76 1.01 1.10 0.82 0.77 0.83 0.89 0.92 0.78 0.52 0.39 0.33 0.33 0.37 0.39 0.43 0.50 0.57 0.62 0.63 0.61 0.58 0.55 0.56 0.55 0.54 0.54 0.56 0.62 0.63 0.66 0.67 0.69 0.70 0.73 0.76 0.81 0.85 0.91 0.95 1.00 1.09 1.14 1.18
0.21 0.30 0.45 0.67 0.72 0.72 0.79 0.84 0.47 0.47 0.55 0.64 0.65 0.54 0.38 0.30 0.27 0.26 0.27 0.28 0.34 0.40 0.46 0.49 0.50 0.54 0.54 0.50 0.51 0.53 0.50 0.47 0.48 0.49 0.50 0.53 0.57 0.60 0.61 0.64 0.66 0.71 0.77 0.86 0.96 1.02 1.07 1.09 1.10